SJV659 WADL-WARR

Flight info

Callsign SJV659
Flight time 0h 53m
Altitude 28000
Route AGUNG W43 ENTAS
Aircraft A320/M-SDE3FGHIRWY/LB1

Departure

Time 2026-04-22 05:57
Airport Lombok International Airport (WADL)

Arrival

Time 2026-04-22 06:51
Airport Juanda International Airport (WARR)
Time Latitude Longitude Altitude Speed Heading
2026-04-22 05:45 -8.76170 116.27499 333 ft 0 kts 218°
2026-04-22 05:47 -8.76166 116.27503 330 ft 2 kts 216°
2026-04-22 05:48 -8.76153 116.27513 331 ft 2 kts 219°
2026-04-22 05:48 -8.76140 116.27523 329 ft 2 kts 219°
2026-04-22 05:48 -8.76127 116.27534 331 ft 2 kts 220°
2026-04-22 05:48 -8.76114 116.27544 330 ft 2 kts 202°
2026-04-22 05:49 -8.76098 116.27548 329 ft 2 kts 167°
2026-04-22 05:49 -8.76085 116.27542 329 ft 1 kts 137°
2026-04-22 05:49 -8.76082 116.27540 330 ft 0 kts 133°
2026-04-22 05:51 -8.76094 116.27555 331 ft 6 kts 130°
2026-04-22 05:52 -8.76133 116.27601 331 ft 11 kts 129°
2026-04-22 05:52 -8.76172 116.27651 331 ft 10 kts 124°
2026-04-22 05:52 -8.76152 116.27713 333 ft 11 kts 43°
2026-04-22 05:52 -8.76086 116.27767 334 ft 14 kts 41°
2026-04-22 05:53 -8.76015 116.27829 335 ft 13 kts 47°
2026-04-22 05:53 -8.76029 116.27907 335 ft 13 kts 130°
2026-04-22 05:53 -8.76091 116.27980 334 ft 15 kts 130°
2026-04-22 05:53 -8.76158 116.28066 338 ft 16 kts 128°
2026-04-22 05:54 -8.76230 116.28157 339 ft 17 kts 129°
2026-04-22 05:54 -8.76313 116.28261 338 ft 22 kts 129°
2026-04-22 05:54 -8.76415 116.28388 337 ft 25 kts 129°
2026-04-22 05:54 -8.76527 116.28527 340 ft 26 kts 129°
2026-04-22 05:55 -8.76637 116.28664 337 ft 18 kts 129°
2026-04-22 05:55 -8.76709 116.28746 346 ft 16 kts 146°
2026-04-22 05:55 -8.76808 116.28795 343 ft 15 kts 133°
2026-04-22 05:55 -8.76821 116.28866 351 ft 10 kts 38°
2026-04-22 05:56 -8.76771 116.28832 350 ft 11 kts 308°
2026-04-22 05:56 -8.76713 116.28758 347 ft 20 kts 309°
2026-04-22 05:56 -8.76454 116.28435 341 ft 99 kts 309°
2026-04-22 05:56 -8.75874 116.27715 334 ft 162 kts 309°
2026-04-22 05:57 -8.75102 116.26758 770 ft 178 kts 307°
2026-04-22 05:57 -8.74321 116.25798 1538 ft 175 kts 308°
2026-04-22 05:57 -8.73572 116.24839 2355 ft 177 kts 308°
2026-04-22 05:57 -8.72767 116.23808 2868 ft 197 kts 309°
2026-04-22 05:58 -8.71883 116.22683 3348 ft 219 kts 309°
2026-04-22 05:58 -8.70880 116.21416 3851 ft 242 kts 309°
2026-04-22 05:58 -8.69779 116.20031 4427 ft 264 kts 310°
2026-04-22 05:58 -8.68598 116.18545 5133 ft 277 kts 310°
2026-04-22 05:59 -8.67380 116.17016 6063 ft 280 kts 311°
2026-04-22 05:59 -8.65872 116.15815 6942 ft 278 kts 340°
2026-04-22 05:59 -8.63981 116.15590 7772 ft 277 kts 10°
2026-04-22 05:59 -8.62108 116.16094 8647 ft 279 kts 20°
2026-04-22 06:00 -8.60270 116.16778 9501 ft 283 kts 22°
2026-04-22 06:00 -8.58422 116.17511 10278 ft 289 kts 23°
2026-04-22 06:00 -8.56484 116.18289 10640 ft 311 kts 22°
2026-04-22 06:00 -8.54305 116.18799 10875 ft 336 kts
2026-04-22 06:01 -8.51978 116.18507 11463 ft 346 kts 348°
2026-04-22 06:01 -8.49639 116.17752 12275 ft 350 kts 341°
2026-04-22 06:01 -8.47392 116.16834 12937 ft 357 kts 339°
2026-04-22 06:01 -8.45097 116.15830 13689 ft 360 kts 339°
2026-04-22 06:02 -8.42792 116.14816 14353 ft 364 kts 339°
2026-04-22 06:02 -8.40455 116.13803 14986 ft 367 kts 339°
2026-04-22 06:02 -8.38090 116.12789 15625 ft 371 kts 339°
2026-04-22 06:02 -8.35702 116.11773 16240 ft 375 kts 339°
2026-04-22 06:03 -8.33290 116.10750 16863 ft 378 kts 339°
2026-04-22 06:03 -8.30850 116.09717 17474 ft 381 kts 339°
2026-04-22 06:03 -8.28393 116.08676 18061 ft 385 kts 339°
2026-04-22 06:03 -8.25913 116.07626 18574 ft 388 kts 339°
2026-04-22 06:04 -8.23451 116.06467 19082 ft 393 kts 331°
2026-04-22 06:04 -8.21267 116.04782 19582 ft 399 kts 317°
2026-04-22 06:04 -8.19517 116.02592 20079 ft 405 kts 303°
2026-04-22 06:04 -8.18059 116.00136 20571 ft 408 kts 302°
2026-04-22 06:05 -8.16600 115.97670 21080 ft 411 kts 302°
2026-04-22 06:05 -8.15125 115.95188 21576 ft 413 kts 302°
2026-04-22 06:05 -8.13638 115.92691 22064 ft 416 kts 302°
2026-04-22 06:05 -8.12138 115.90180 22543 ft 419 kts 302°
2026-04-22 06:06 -8.10627 115.87652 23012 ft 422 kts 302°
2026-04-22 06:06 -8.09105 115.85108 23471 ft 425 kts 302°
2026-04-22 06:06 -8.07574 115.82548 23839 ft 428 kts 302°
2026-04-22 06:06 -8.06030 115.79969 24214 ft 431 kts 302°
2026-04-22 06:07 -8.04477 115.77374 24569 ft 434 kts 302°
2026-04-22 06:07 -8.02916 115.74764 24925 ft 437 kts 302°
2026-04-22 06:07 -8.01360 115.72164 25270 ft 440 kts 302°
2026-04-22 06:07 -7.99916 115.69385 25604 ft 444 kts 295°
2026-04-22 06:08 -7.98822 115.66465 25953 ft 447 kts 288°
2026-04-22 06:08 -7.98066 115.63415 26295 ft 450 kts 282°
2026-04-22 06:08 -7.97438 115.60353 26626 ft 452 kts 282°
2026-04-22 06:08 -7.96786 115.57237 26962 ft 455 kts 282°
2026-04-22 06:09 -7.96128 115.54112 27289 ft 457 kts 282°
2026-04-22 06:09 -7.95463 115.50964 27608 ft 460 kts 282°
2026-04-22 06:09 -7.94797 115.47807 27821 ft 462 kts 282°
2026-04-22 06:09 -7.94129 115.44637 27858 ft 462 kts 282°
2026-04-22 06:10 -7.93461 115.41473 27859 ft 461 kts 282°
2026-04-22 06:10 -7.92793 115.38305 27859 ft 461 kts 282°
2026-04-22 06:10 -7.92125 115.35137 27860 ft 462 kts 282°
2026-04-22 06:10 -7.91457 115.31969 27857 ft 462 kts 282°
2026-04-22 06:11 -7.90788 115.28802 27858 ft 462 kts 282°
2026-04-22 06:11 -7.90121 115.25640 27857 ft 462 kts 282°
2026-04-22 06:11 -7.89450 115.22467 27856 ft 462 kts 282°
2026-04-22 06:11 -7.88780 115.19296 27856 ft 462 kts 282°
2026-04-22 06:12 -7.88109 115.16122 27856 ft 462 kts 282°
2026-04-22 06:12 -7.87438 115.12950 27854 ft 462 kts 282°
2026-04-22 06:12 -7.86768 115.09782 27854 ft 462 kts 282°
2026-04-22 06:12 -7.86096 115.06609 27854 ft 462 kts 282°
2026-04-22 06:13 -7.85425 115.03440 27853 ft 462 kts 282°
2026-04-22 06:13 -7.84754 115.00273 27853 ft 463 kts 282°
2026-04-22 06:13 -7.84082 114.97099 27854 ft 462 kts 282°
2026-04-22 06:13 -7.83411 114.93932 27854 ft 462 kts 282°
2026-04-22 06:14 -7.82739 114.90765 27853 ft 462 kts 282°
2026-04-22 06:14 -7.82067 114.87598 27854 ft 462 kts 282°
2026-04-22 06:14 -7.81399 114.84449 27853 ft 461 kts 282°
2026-04-22 06:14 -7.80723 114.81269 27853 ft 461 kts 282°
2026-04-22 06:15 -7.80051 114.78102 27854 ft 461 kts 282°
2026-04-22 06:15 -7.79380 114.74943 27854 ft 461 kts 282°
2026-04-22 06:15 -7.78708 114.71786 27854 ft 461 kts 282°
2026-04-22 06:15 -7.78037 114.68627 27853 ft 460 kts 282°
2026-04-22 06:16 -7.77366 114.65474 27854 ft 460 kts 282°
2026-04-22 06:16 -7.76693 114.62312 27853 ft 460 kts 282°
2026-04-22 06:16 -7.76031 114.59200 27854 ft 461 kts 282°
2026-04-22 06:16 -7.75358 114.56042 27857 ft 461 kts 282°
2026-04-22 06:17 -7.74686 114.52884 27858 ft 461 kts 282°
2026-04-22 06:17 -7.74012 114.49722 27858 ft 461 kts 282°
2026-04-22 06:17 -7.73337 114.46558 27859 ft 461 kts 282°
2026-04-22 06:17 -7.72664 114.43401 27858 ft 461 kts 282°
2026-04-22 06:18 -7.72033 114.40233 27862 ft 461 kts 279°
2026-04-22 06:18 -7.71727 114.37013 27862 ft 462 kts 272°
2026-04-22 06:18 -7.71797 114.33782 27863 ft 462 kts 265°
2026-04-22 06:18 -7.72202 114.30564 27864 ft 462 kts 262°
2026-04-22 06:19 -7.72657 114.27362 27863 ft 462 kts 262°
2026-04-22 06:19 -7.73105 114.24148 27864 ft 462 kts 262°
2026-04-22 06:19 -7.73549 114.20940 27867 ft 462 kts 262°
2026-04-22 06:19 -7.73993 114.17731 27870 ft 462 kts 262°
2026-04-22 06:20 -7.74437 114.14520 27869 ft 463 kts 262°
2026-04-22 06:20 -7.74883 114.11307 27872 ft 463 kts 262°
2026-04-22 06:20 -7.75186 114.08078 27872 ft 463 kts 268°
2026-04-22 06:20 -7.75129 114.04837 27875 ft 463 kts 273°
2026-04-22 06:21 -7.74974 114.01597 27873 ft 463 kts 273°
2026-04-22 06:21 -7.74829 113.98355 27873 ft 463 kts 272°
2026-04-22 06:21 -7.74687 113.95110 27873 ft 463 kts 272°
2026-04-22 06:21 -7.74593 113.92964 27874 ft 463 kts 272°
2026-04-22 06:22 -7.74403 113.88630 27873 ft 462 kts 272°
2026-04-22 06:22 -7.74308 113.86481 27875 ft 462 kts 272°
2026-04-22 06:22 -7.74164 113.83241 27870 ft 462 kts 272°
2026-04-22 06:22 -7.74020 113.80001 27872 ft 462 kts 272°
2026-04-22 06:23 -7.73875 113.76765 27771 ft 463 kts 272°
2026-04-22 06:23 -7.73730 113.73526 27529 ft 461 kts 272°
2026-04-22 06:23 -7.73586 113.70309 27287 ft 458 kts 272°
2026-04-22 06:23 -7.73442 113.67109 27039 ft 455 kts 272°
2026-04-22 06:24 -7.73157 113.60756 26561 ft 452 kts 273°
2026-04-22 06:24 -7.73014 113.57591 26246 ft 452 kts 273°
2026-04-22 06:24 -7.72763 113.54420 25616 ft 455 kts 278°
2026-04-22 06:25 -7.72151 113.51345 25002 ft 452 kts 285°
2026-04-22 06:25 -7.71361 113.48323 24438 ft 440 kts 285°
2026-04-22 06:25 -7.70601 113.45371 23853 ft 429 kts 285°
2026-04-22 06:25 -7.69865 113.42491 23240 ft 419 kts 285°
2026-04-22 06:26 -7.69149 113.39684 22685 ft 407 kts 285°
2026-04-22 06:26 -7.68454 113.36959 22150 ft 395 kts 285°
2026-04-22 06:26 -7.67777 113.34309 21623 ft 387 kts 285°
2026-04-22 06:26 -7.67087 113.31613 21084 ft 408 kts 285°
2026-04-22 06:27 -7.66368 113.28811 20514 ft 416 kts 285°
2026-04-22 06:27 -7.65646 113.25991 19932 ft 415 kts 285°
2026-04-22 06:27 -7.65029 113.23140 19393 ft 416 kts 282°
2026-04-22 06:27 -7.64488 113.20339 19141 ft 397 kts 282°
2026-04-22 06:28 -7.63973 113.17682 18949 ft 376 kts 282°
2026-04-22 06:28 -7.63482 113.15162 18784 ft 356 kts 282°
2026-04-22 06:28 -7.63017 113.12776 18629 ft 338 kts 282°
2026-04-22 06:28 -7.62575 113.10516 18472 ft 321 kts 282°
2026-04-22 06:29 -7.62148 113.08332 18023 ft 316 kts 283°
2026-04-22 06:29 -7.61724 113.06171 17449 ft 313 kts 283°
2026-04-22 06:29 -7.61303 113.04025 16893 ft 311 kts 283°
2026-04-22 06:29 -7.60886 113.01895 16351 ft 308 kts 283°
2026-04-22 06:30 -7.60472 112.99783 15820 ft 306 kts 283°
2026-04-22 06:30 -7.60062 112.97687 15305 ft 303 kts 283°
2026-04-22 06:30 -7.59655 112.95608 14790 ft 301 kts 283°
2026-04-22 06:30 -7.59251 112.93546 14291 ft 299 kts 283°
2026-04-22 06:31 -7.58849 112.91494 13798 ft 297 kts 283°
2026-04-22 06:31 -7.58451 112.89462 13306 ft 293 kts 283°
2026-04-22 06:31 -7.58060 112.87464 13211 ft 294 kts 283°
2026-04-22 06:31 -7.57664 112.85453 13088 ft 296 kts 283°
2026-04-22 06:32 -7.57268 112.83434 13039 ft 292 kts 283°
2026-04-22 06:32 -7.56871 112.81408 13030 ft 296 kts 283°
2026-04-22 06:32 -7.56475 112.79379 13033 ft 293 kts 283°
2026-04-22 06:32 -7.56083 112.77364 13032 ft 294 kts 283°
2026-04-22 06:33 -7.55690 112.75342 13036 ft 294 kts 283°
2026-04-22 06:33 -7.55298 112.73321 13036 ft 294 kts 283°
2026-04-22 06:33 -7.54904 112.71300 13033 ft 294 kts 283°
2026-04-22 06:33 -7.54511 112.69282 13033 ft 294 kts 283°
2026-04-22 06:34 -7.54117 112.67259 12999 ft 295 kts 283°
2026-04-22 06:34 -7.53721 112.65242 12877 ft 292 kts 283°
2026-04-22 06:34 -7.53328 112.63241 12588 ft 290 kts 283°
2026-04-22 06:34 -7.52938 112.61254 12242 ft 289 kts 283°
2026-04-22 06:35 -7.52549 112.59276 11900 ft 287 kts 283°
2026-04-22 06:35 -7.52162 112.57309 11554 ft 285 kts 283°
2026-04-22 06:35 -7.51778 112.55356 11233 ft 283 kts 283°
2026-04-22 06:35 -7.51403 112.53446 10971 ft 280 kts 283°
2026-04-22 06:36 -7.51023 112.51513 10708 ft 281 kts 283°
2026-04-22 06:36 -7.50645 112.49589 10445 ft 278 kts 283°
2026-04-22 06:36 -7.50271 112.47685 10187 ft 275 kts 283°
2026-04-22 06:36 -7.49897 112.45787 9924 ft 277 kts 283°
2026-04-22 06:37 -7.49524 112.43894 9653 ft 274 kts 283°
2026-04-22 06:37 -7.49157 112.42025 9393 ft 272 kts 283°
2026-04-22 06:37 -7.48788 112.40153 9139 ft 273 kts 283°
2026-04-22 06:37 -7.48421 112.38287 8886 ft 270 kts 283°
2026-04-22 06:38 -7.48056 112.36433 8629 ft 270 kts 283°
2026-04-22 06:38 -7.47690 112.34581 8376 ft 269 kts 283°
2026-04-22 06:38 -7.47281 112.32741 8114 ft 267 kts 292°
2026-04-22 06:38 -7.46285 112.31216 7864 ft 260 kts 321°
2026-04-22 06:39 -7.44718 112.30371 7631 ft 257 kts 349°
2026-04-22 06:39 -7.42977 112.30370 7402 ft 255 kts 11°
2026-04-22 06:39 -7.41232 112.30682 7160 ft 253 kts 11°
2026-04-22 06:39 -7.39502 112.30988 6907 ft 251 kts 11°
2026-04-22 06:40 -7.37775 112.31283 6693 ft 252 kts 10°
2026-04-22 06:40 -7.36089 112.31564 6573 ft 238 kts 10°
2026-04-22 06:40 -7.34499 112.31824 6390 ft 227 kts 10°
2026-04-22 06:40 -7.32944 112.32078 6053 ft 226 kts 10°
2026-04-22 06:41 -7.31486 112.32577 5825 ft 219 kts 35°
2026-04-22 06:41 -7.30476 112.33725 5623 ft 226 kts 65°
2026-04-22 06:41 -7.30205 112.35247 5530 ft 220 kts 95°
2026-04-22 06:41 -7.30496 112.36722 5451 ft 209 kts 100°
2026-04-22 06:42 -7.30793 112.38130 5295 ft 203 kts 99°
2026-04-22 06:42 -7.31075 112.39516 5036 ft 202 kts 99°
2026-04-22 06:42 -7.31352 112.40898 4795 ft 201 kts 99°
2026-04-22 06:42 -7.31627 112.42273 4553 ft 199 kts 99°
2026-04-22 06:43 -7.31899 112.43636 4303 ft 198 kts 99°
2026-04-22 06:43 -7.32171 112.44994 4067 ft 196 kts 99°
2026-04-22 06:43 -7.32441 112.46339 3877 ft 197 kts 99°
2026-04-22 06:43 -7.32714 112.47696 3697 ft 198 kts 99°
2026-04-22 06:44 -7.32985 112.49048 3535 ft 195 kts 99°
2026-04-22 06:44 -7.33250 112.50371 3503 ft 196 kts 99°
2026-04-22 06:44 -7.33519 112.51712 3500 ft 195 kts 100°
2026-04-22 06:44 -7.33789 112.53060 3499 ft 197 kts 99°
2026-04-22 06:45 -7.34057 112.54400 3499 ft 195 kts 99°
2026-04-22 06:45 -7.34290 112.55742 3357 ft 194 kts 97°
2026-04-22 06:45 -7.34500 112.57084 3113 ft 194 kts 97°
2026-04-22 06:45 -7.34707 112.58432 2827 ft 195 kts 97°
2026-04-22 06:46 -7.34918 112.59765 2716 ft 191 kts 98°
2026-04-22 06:46 -7.35124 112.61061 2732 ft 178 kts 98°
2026-04-22 06:46 -7.35327 112.62231 2611 ft 161 kts 99°
2026-04-22 06:46 -7.35508 112.63293 2460 ft 147 kts 97°
2026-04-22 06:47 -7.35667 112.64268 2375 ft 140 kts 97°
2026-04-22 06:47 -7.35821 112.65241 2276 ft 138 kts 98°
2026-04-22 06:47 -7.35974 112.66181 2113 ft 134 kts 97°
2026-04-22 06:47 -7.36123 112.67114 1960 ft 137 kts 98°
2026-04-22 06:48 -7.36275 112.68059 1799 ft 136 kts 98°
2026-04-22 06:48 -7.36427 112.69002 1635 ft 136 kts 98°
2026-04-22 06:48 -7.36578 112.69942 1452 ft 136 kts 98°
2026-04-22 06:48 -7.36729 112.70881 1278 ft 136 kts 98°
2026-04-22 06:49 -7.36880 112.71818 1091 ft 135 kts 98°
2026-04-22 06:49 -7.37031 112.72756 932 ft 135 kts 98°
2026-04-22 06:49 -7.37180 112.73685 760 ft 133 kts 98°
2026-04-22 06:49 -7.37327 112.74598 588 ft 132 kts 98°
2026-04-22 06:50 -7.37476 112.75512 392 ft 131 kts 98°
2026-04-22 06:50 -7.37619 112.76410 221 ft 129 kts 98°
2026-04-22 06:50 -7.37760 112.77308 60 ft 130 kts 97°
2026-04-22 06:50 -7.37894 112.78155 9 ft 104 kts 99°
2026-04-22 06:51 -7.37977 112.78651 9 ft 45 kts 98°
2026-04-22 06:51 -7.37998 112.78792 9 ft 14 kts 94°
2026-04-22 06:51 -7.37933 112.78861 9 ft 13 kts 12°
2026-04-22 06:51 -7.37824 112.78879 9 ft 18 kts
2026-04-22 06:52 -7.37719 112.78896 9 ft 13 kts
2026-04-22 06:52 -7.37673 112.78969 9 ft 15 kts 96°
2026-04-22 06:52 -7.37681 112.79058 9 ft 13 kts 82°
2026-04-22 06:52 -7.37632 112.79118 9 ft 9 kts 76°
2026-04-22 06:53 -7.37635 112.79189 9 ft 12 kts 99°
2026-04-22 06:53 -7.37646 112.79264 9 ft 8 kts 91°
2026-04-22 06:53 -7.37619 112.79282 9 ft 5 kts 14°
2026-04-22 06:53 -7.37571 112.79291 9 ft 9 kts
2026-04-22 06:54 -7.37554 112.79294 9 ft 0 kts